Latest Weather Observations for Wattamolla

IDN60801

Issued at 8:35 pm EDT Thursday 23 October 2014 (issued every 30 minutes, with the page automatically refreshed every 10 minutes)

About weather observations | Map of weather stations | Latest weather observations for NSW | Other Formats
Station Details ID: 066208 Name: WATTAMOLLA AWS Lat: -34.14 Lon: 151.12 Height: 44.0 m
Data from the previous 72 hours. | See also: Recent months for locations in New South Wales
Date/Time
EDT
Temp
°C
App
Temp
°C
Dew
Point
Rel
Hum
%
Delta-T
°C
Wind Press
QNH
hPa
Press
MSL
hPa
Rain
since 9 am
mm
Dir
 
Spd
km/h
Gust
km/h
Spd
kts
Gust
kts
23/08:30pm - - - - - SSW 7 11 4 6 - - -
23/08:00pm - - - - - S 17 17 9 9 - - -
23/07:30pm - - - - - SW 7 9 4 5 - - -
23/07:00pm - - - - - SSW 9 13 5 7 - - -
23/06:30pm - - - - - SSW 2 7 1 4 - - -
23/06:00pm - - - - - SSE 6 7 3 4 - - -
23/05:30pm - - - - - SE 7 11 4 6 - - -
23/05:00pm - - - - - SE 7 9 4 5 - - -
23/04:30pm - - - - - SSE 9 11 5 6 - - -
23/04:00pm - - - - - SE 11 13 6 7 - - -
23/03:30pm - - - - - SSE 9 11 5 6 - - -
23/03:00pm - - - - - SSE 9 11 5 6 - - -
23/02:30pm - - - - - SSE 13 15 7 8 - - -
23/02:00pm - - - - - S 15 19 8 10 - - -
23/01:30pm - - - - - S 15 19 8 10 - - -
23/01:00pm - - - - - S 9 13 5 7 - - -
23/12:30pm - - - - - SSE 9 11 5 6 - - -
23/11:30am - - - - - S 9 11 5 6 - - -
23/11:00am - - - - - S 15 19 8 10 - - -
23/10:30am - - - - - SSE 9 19 5 10 - - -
23/10:00am - - - - - WNW 9 13 5 7 - - -
23/09:30am - - - - - NNW 13 17 7 9 - - -
23/09:00am - - - - - NNW 13 19 7 10 - - -
23/08:30am - - - - - N 13 20 7 11 - - -
23/08:00am - - - - - NNW 11 17 6 9 - - -
23/07:30am - - - - - NNW 11 13 6 7 - - -
23/07:00am - - - - - NNW 19 22 10 12 - - -
23/06:30am - - - - - N 13 19 7 10 - - -
23/06:00am - - - - - NNW 9 17 5 9 - - -
23/05:30am - - - - - N 13 17 7 9 - - -
23/05:00am - - - - - N 7 11 4 6 - - -
23/04:30am - - - - - NNE 7 13 4 7 - - -
23/04:00am - - - - - N 6 9 3 5 - - -
23/03:30am - - - - - N 9 13 5 7 - - -
23/03:00am - - - - - N 13 15 7 8 - - -
23/02:30am - - - - - N 13 15 7 8 - - -
23/02:00am - - - - - N 15 15 8 8 - - -
23/01:30am - - - - - N 13 15 7 8 - - -
23/01:00am - - - - - N 13 15 7 8 - - -
23/12:30am - - - - - NNW 13 15 7 8 - - -
23/12:00am - - - - - N 13 15 7 8 - - -
 
Date/Time
EDT
Temp
°C
App
Temp
°C
Dew
Point
Rel
Hum
%
Delta-T
°C
Wind Press
QNH
hPa
Press
MSL
hPa
Rain
since 9 am
mm
Dir
 
Spd
km/h
Gust
km/h
Spd
kts
Gust
kts
22/11:30pm - - - - - N 11 11 6 6 - - -
22/11:00pm - - - - - N 13 17 7 9 - - -
22/10:30pm - - - - - N 19 26 10 14 - - -
22/10:00pm - - - - - N 17 24 9 13 - - -
22/09:30pm - - - - - N 17 24 9 13 - - -
22/09:00pm - - - - - N 19 28 10 15 - - -
22/08:30pm - - - - - N 19 28 10 15 - - -
22/08:00pm - - - - - NNE 20 32 11 17 - - -
22/07:30pm - - - - - NNE 20 32 11 17 - - -
22/07:00pm - - - - - NNE 28 39 15 21 - - -
22/06:30pm - - - - - NNE 28 39 15 21 - - -
22/06:00pm - - - - - NNE 24 37 13 20 - - -
22/05:30pm - - - - - NNE 26 35 14 19 - - -
22/05:00pm - - - - - NE 28 43 15 23 - - -
22/04:30pm - - - - - NE 30 46 16 25 - - -
22/04:00pm - - - - - NE 32 44 17 24 - - -
22/03:30pm - - - - - NE 30 41 16 22 - - -
22/03:00pm - - - - - NE 32 41 17 22 - - -
22/02:30pm - - - - - NE 30 43 16 23 - - -
22/02:00pm - - - - - NE 30 41 16 22 - - -
22/01:30pm - - - - - NE 30 39 16 21 - - -
22/01:00pm - - - - - NE 30 44 16 24 - - -
22/12:30pm - - - - - NE 28 39 15 21 - - -
22/12:00pm - - - - - NE 26 37 14 20 - - -
22/11:30am - - - - - N 20 32 11 17 - - -
22/11:00am - - - - - N 22 35 12 19 - - -
22/10:30am - - - - - N 22 32 12 17 - - -
22/10:00am - - - - - N 20 33 11 18 - - -
22/09:30am - - - - - N 17 26 9 14 - - -
22/09:00am - - - - - N 13 24 7 13 - - -
22/08:30am - - - - - N 13 15 7 8 - - -
22/08:00am - - - - - NNW 11 17 6 9 - - -
22/07:30am - - - - - NNW 9 15 5 8 - - -
22/07:00am - - - - - NNW 9 13 5 7 - - -
22/06:30am - - - - - N 9 11 5 6 - - -
22/06:00am - - - - - N 11 13 6 7 - - -
22/05:30am - - - - - N 9 13 5 7 - - -
22/05:00am - - - - - NNW 11 13 6 7 - - -
22/04:30am - - - - - N 9 13 5 7 - - -
22/04:00am - - - - - N 9 11 5 6 - - -
22/03:30am - - - - - NNW 11 13 6 7 - - -
22/03:00am - - - - - NE 13 20 7 11 - - -
22/02:30am - - - - - N 15 20 8 11 - - -
22/02:00am - - - - - NNW 11 13 6 7 - - -
22/01:30am - - - - - N 13 15 7 8 - - -
22/01:00am - - - - - N 17 22 9 12 - - -
22/12:30am - - - - - N 11 20 6 11 - - -
22/12:00am - - - - - NNE 7 17 4 9 - - -
 
Date/Time
EDT
Temp
°C
App
Temp
°C
Dew
Point
Rel
Hum
%
Delta-T
°C
Wind Press
QNH
hPa
Press
MSL
hPa
Rain
since 9 am
mm
Dir
 
Spd
km/h
Gust
km/h
Spd
kts
Gust
kts
21/11:30pm - - - - - N 15 19 8 10 - - -
21/11:00pm - - - - - N 11 17 6 9 - - -
21/10:30pm - - - - - N 17 24 9 13 - - -
21/10:00pm - - - - - NE 13 20 7 11 - - -
21/09:30pm - - - - - ENE 20 30 11 16 - - -
21/09:00pm - - - - - SE 15 24 8 13 - - -
21/08:30pm - - - - - NNE 11 15 6 8 - - -
21/08:00pm - - - - - N 11 15 6 8 - - -
21/07:30pm - - - - - NE 13 19 7 10 - - -
21/07:00pm - - - - - NE 15 26 8 14 - - -
21/06:30pm - - - - - NE 9 15 5 8 - - -
21/06:00pm - - - - - NE 11 13 6 7 - - -
21/05:30pm - - - - - NE 11 17 6 9 - - -
21/05:00pm - - - - - ENE 9 13 5 7 - - -
21/04:30pm - - - - - E 11 15 6 8 - - -
21/04:00pm - - - - - ENE 13 19 7 10 - - -
21/03:30pm - - - - - ENE 13 19 7 10 - - -
21/03:00pm - - - - - ENE 11 17 6 9 - - -
21/02:30pm - - - - - E 13 17 7 9 - - -
21/02:00pm - - - - - E 13 19 7 10 - - -
21/01:30pm - - - - - ENE 15 19 8 10 - - -
21/01:00pm - - - - - ENE 13 17 7 9 - - -
21/12:30pm - - - - - E 11 17 6 9 - - -
21/12:00pm - - - - - E 13 20 7 11 - - -
21/11:30am - - - - - ESE 13 22 7 12 - - -
21/11:00am - - - - - ESE 13 20 7 11 - - -
21/10:30am - - - - - SE 17 30 9 16 - - -
21/10:00am - - - - - ESE 17 30 9 16 - - -
21/09:30am - - - - - ESE 11 20 6 11 - - -
21/09:00am - - - - - SE 15 28 8 15 - - -
21/08:30am - - - - - SE 13 28 7 15 - - -
21/08:00am - - - - - SE 15 20 8 11 - - -
21/07:30am - - - - - SSE 17 24 9 13 - - -
21/07:00am - - - - - SE 13 24 7 13 - - -
21/06:30am - - - - - SE 13 20 7 11 - - -
21/06:00am - - - - - S 19 30 10 16 - - -
21/05:30am - - - - - SSW 17 28 9 15 - - -
21/05:00am - - - - - NW 7 11 4 6 - - -
21/04:30am - - - - - W 7 15 4 8 - - -
21/04:00am - - - - - S 20 28 11 15 - - -
21/03:30am - - - - - S 28 33 15 18 - - -
21/03:00am - - - - - S 24 32 13 17 - - -
21/02:30am - - - - - SE 28 32 15 17 - - -
21/02:00am - - - - - SSE 26 32 14 17 - - -
21/01:30am - - - - - SSE 28 37 15 20 - - -
21/01:00am - - - - - SSE 32 39 17 21 - - -
21/12:30am - - - - - SSE 26 39 14 21 - - -
21/12:00am - - - - - SE 28 35 15 19 - - -
 
Date/Time
EDT
Temp
°C
App
Temp
°C
Dew
Point
Rel
Hum
%
Delta-T
°C
Wind Press
QNH
hPa
Press
MSL
hPa
Rain
since 9 am
mm
Dir
 
Spd
km/h
Gust
km/h
Spd
kts
Gust
kts
20/11:30pm - - - - - SE 26 33 14 18 - - -
20/11:00pm - - - - - SSE 26 41 14 22 - - -
20/10:30pm - - - - - SSE 33 43 18 23 - - -
20/10:00pm - - - - - S 30 43 16 23 - - -
20/09:30pm - - - - - SSE 26 39 14 21 - - -
20/09:01pm - - - - - S 28 46 15 25 - - -
20/09:00pm - - - - - S 26 44 14 24 - - -

Other Formats:

Comma delimited format used in spreadsheet applications
http://www.bom.gov.au/fwo/IDN60801/IDN60801.95752.axf

JavaScript Object Notation format (JSON) in row-major order
http://www.bom.gov.au/fwo/IDN60801/IDN60801.95752.json